GW5434 Weather Reports


Display with metric or nautical units.
time (UTC)temp
F
wind
direction
speed
MPH
gust
MPH
rain 1hr
in
rain 24hr
in
rain mn
in
humidity
%
barometer
mb
20260831193039 94 86 2.0 11.0 0.00 0.00 0.00 56 1017.6
20260831181541 91 105 1.0 4.0 0.00 0.00 0.00 64 1018.2
20260831180036 91 162 3.0 6.0 0.00 0.00 0.00 62 1018.2
20260831174508 91 34 1.0 4.0 0.00 0.00 0.00 62 1018.3
20260831173018 93 33 3.0 6.0 0.00 0.00 0.00 59 1018.5
20260831171523 93 145 0.0 8.0 0.00 0.00 0.00 61 1018.8
20260831170033 91 147 3.0 7.0 0.00 0.00 0.00 63 1019.1
20260831163012 90 359 3.0 8.0 0.00 0.00 0.00 65 1019.4
20260831161529 89 60 2.0 7.0 0.00 0.00 0.00 69 1019.5
20260831160023 88 53 1.0 6.0 0.00 0.00 0.00 70 1019.5
20260831154608 88 174 3.0 6.0 0.00 0.00 0.00 72 1019.6
20260831153031 87 79 3.0 6.0 0.00 0.00 0.00 71 1019.8
20260831151513 86 83 0.0 4.0 0.00 0.00 0.00 74 1019.8
20260831150019 87 186 3.0 8.0 0.00 0.00 0.00 74 1019.7
20260831144526 86 123 3.0 10.0 0.00 0.00 0.00 75 1019.6
20260831143034 85 250 1.0 6.0 0.00 0.00 0.00 77 1019.4
20260831141531 84 262 2.0 6.0 0.00 0.00 0.00 78 1019.4
20260831134520 81 65 0.0 3.0 0.00 0.00 0.00 84 1019.3
20260831133027 79 74 1.0 5.0 0.00 0.00 0.00 85 1019.3
20260831131506 79 6 0.0 3.0 0.00 0.00 0.00 86 1019.2
20260831130010 76 53 0.0 0.0 0.00 0.00 0.00 92 1019.1
20260831124519 74 328 0.0 0.0 0.00 0.00 0.00 95 1019.0
20260831123026 72 115 0.0 0.0 0.00 0.00 0.00 95 1018.8
20260831121530 72 115 0.0 0.0 0.00 0.00 0.00 95 1018.6
20260831120010 71 115 0.0 0.0 0.00 0.00 0.00 95 1018.5
20260831114513 71 115 0.0 0.0 0.00 0.00 0.00 95 1018.3
20260831113021 71 115 0.0 0.0 0.00 0.00 0.00 94 1018.2
20260831111536 71 115 0.0 0.0 0.00 0.00 0.00 95 1018.0
20260831104519 71 115 0.0 0.0 0.00 0.00 0.00 94 1017.6
20260831103018 71 115 0.0 0.0 0.00 0.00 0.00 94 1017.6
20260831101523 71 115 0.0 0.0 0.00 0.00 0.00 94 1017.2
20260831100039 71 115 0.0 0.0 0.00 0.00 0.00 94 1017.3
20260831094535 71 115 0.0 0.0 0.00 0.00 0.00 94 1017.3
20260831093030 71 115 0.0 0.0 0.00 0.00 0.00 94 1017.1
20260831091520 72 115 0.0 0.0 0.00 0.00 0.00 94 1017.0
20260831084528 72 115 0.0 0.0 0.00 0.00 0.00 94 1017.0
20260831083043 72 115 0.0 0.0 0.00 0.00 0.00 93 1017.0
20260831081512 73 115 0.0 0.0 0.00 0.00 0.00 94 1017.1
20260831080037 73 115 0.0 0.0 0.00 0.00 0.00 93 1016.9
20260831074530 73 115 0.0 0.0 0.00 0.00 0.00 93 1017.1
20260831073033 73 115 0.0 0.0 0.00 0.00 0.00 93 1017.0
20260831071542 73 115 0.0 0.0 0.00 0.00 0.00 93 1017.1
20260831070018 73 115 0.0 0.0 0.00 0.00 0.00 92 1017.1
20260831064528 73 115 0.0 0.0 0.00 0.00 0.00 92 1017.3
20260831063028 73 115 0.0 0.0 0.00 0.00 0.00 92 1017.5
20260831061530 73 115 0.0 0.0 0.00 0.00 0.00 92 1017.5
20260831060035 74 115 0.0 0.0 0.00 0.00 0.00 92 1017.7
20260831053027 74 115 0.0 0.0 0.00 0.00 0.00 91 1017.7
20260831051533 74 115 0.0 0.0 0.00 0.00 0.00 90 1017.8
20260831050010 74 115 0.0 0.0 0.00 0.00 0.00 90 1017.8
20260831044545 75 115 0.0 0.0 0.00 0.00 0.00 90 1017.8
20260831043022 75 115 0.0 0.0 0.00 0.00 0.00 90 1017.8
20260831041533 75 115 0.0 0.0 0.00 0.00 0.00 89 1017.9
20260831034513 76 115 0.0 0.0 0.00 0.00 0.00 88 1017.9
20260831033100 77 107 0.0 0.0 0.00 0.00 0.00 88 1018.0
20260831031533 77 107 0.0 0.0 0.00 0.00 0.00 87 1017.8
20260831030028 77 107 0.0 0.0 0.00 0.00 0.00 86 1017.9
20260831024531 78 109 0.0 0.0 0.00 0.00 0.00 86 1017.8
20260831023015 78 115 0.0 0.0 0.00 0.00 0.00 86 1017.7
20260831021525 78 122 0.0 0.0 0.00 0.00 0.00 86 1017.6
20260831020030 78 122 0.0 0.0 0.00 0.00 0.00 85 1017.5
20260831014530 79 122 0.0 0.0 0.00 0.00 0.00 85 1017.3
20260831013031 79 131 0.0 0.0 0.00 0.00 0.00 84 1017.0
20260831011516 80 110 0.0 0.0 0.00 0.00 0.00 84 1016.7
20260831010030 81 121 0.0 0.0 0.00 0.00 0.00 81 1016.7
20260831004530 82 148 0.0 0.0 0.00 0.00 0.00 80 1016.6
20260831003032 84 148 0.0 0.0 0.00 0.00 0.00 77 1016.3
20260831001537 86 148 0.0 2.0 0.00 0.00 0.00 73 1016.2
20260831000020 88 195 0.0 2.0 0.00 0.00 0.00 69 1016.1
20260830234527 88 225 1.0 3.0 0.00 0.00 0.00 68 1016.1
20260830233036 88 218 1.0 7.0 0.00 0.00 0.00 68 1016.1
20260830231531 90 167 2.0 8.0 0.00 0.00 0.00 66 1016.2
20260830230031 89 110 3.0 9.0 0.00 0.00 0.00 65 1016.1
20260830224517 90 89 0.0 3.0 0.00 0.00 0.00 60 1016.0